West Vancouver, British Columbia

6:02 AM PST on February 22, 2017 (GMT -0800)
West Vancouver

Weather History for CWWA - October, 2011

Change the Weather History Date:

Tuesday, October 11, 2011

  Actual Average Record
Temperature  
Mean Temperature 51 °F -  
Max Temperature 53 °F - - ()
Min Temperature 49 °F - - ()
Degree Days  
Heating Degree Days 14    
Growing Degree Days 1 (Base 50)    
Moisture  
Dew Point 50 °F    
Average Humidity 94    
Maximum Humidity 97    
Minimum Humidity 89    
Precipitation  
Precipitation 0.43 in - - ()
Sea Level Pressure  
Sea Level Pressure 29.70 in    
Wind  
Wind Speed 3 mph ()    
Max Wind Speed 6 mph    
Max Gust Speed -    
T = Trace of Precipitation, MM = Missing Value Source: Averaged Metar Reports

Daily Weather History Graph

Daily Weather History Graph

Search for Another Location

Airport or City:

Trip Planner

Search our weather history database for the weather conditions in past years. The results will help you decide how hot, cold, wet, or windy it might be!

Date:

Astronomy

Oct. 11, 2011 Rise Set
Actual Time 7:27 AM PDT 6:30 PM PDT
Civil Twilight 6:55 AM PDT 7:02 PM PDT
Nautical Twilight 6:18 AM PDT 7:39 PM PDT
Astronomical Twilight 5:41 AM PDT 8:16 PM PDT
Moon 5:59 PM PDT (10/11) 7:14 AM PDT (10/11)
Length of Visible Light 12h 07m
Length of Day
11h 03m
Full, 100% of the Moon is Illuminated
Oct 11
Full
Oct 11
Full
Oct 19
Last Quarter
Oct 26
New
Nov 2
First Quarter

Hourly Weather History & Observations

Time (PDT) Temp. Dew Point Humidity Pressure Visibility Wind Dir Wind Speed Gust Speed Precip Events Conditions
12:00 AM 52.0 °F 50.7 °F 95% 29.49 in - East 4.6 mph - 0.10 in   Unknown
1:00 AM 51.8 °F 50.5 °F 95% 29.49 in - East 3.5 mph - 0.07 in   Unknown
2:00 AM 51.6 °F 50.4 °F 95% 29.50 in - East 4.6 mph - 0.07 in   Unknown
3:00 AM 51.6 °F 50.4 °F 95% 29.50 in - East 3.5 mph - 0.04 in   Unknown
4:00 AM 51.8 °F 50.5 °F 95% 29.49 in - ENE 5.8 mph - 0.06 in   Unknown
5:00 AM 52 °F 51 °F 93% 29.50 in - East 4.6 mph - -  
5:00 AM 51.8 °F 50.5 °F 95% 29.50 in - East 4.6 mph - 0.07 in   Unknown
6:00 AM 51.4 °F 50.4 °F 96% 29.51 in - ENE 2.3 mph - 0.15 in   Unknown
7:00 AM 51.3 °F 50.0 °F 95% 29.54 in - NE 2.3 mph - N/A   Unknown
8:00 AM 50.7 °F 49.1 °F 94% 29.58 in - NE 3.5 mph - N/A   Unknown
9:00 AM 50.9 °F 49.5 °F 95% 29.62 in - Calm Calm - N/A   Unknown
10:00 AM 51.6 °F 49.6 °F 93% 29.66 in - NNE 3.5 mph - N/A   Unknown
11:00 AM 52.3 °F 50.2 °F 92% 29.70 in - NNE 1.2 mph - N/A   Unknown
12:00 PM 52.9 °F 49.8 °F 89% 29.73 in - East 2.3 mph - 0.01 in   Unknown
1:00 PM 53.2 °F 50.2 °F 89% 29.76 in - East 3.5 mph - N/A   Unknown
2:00 PM 52.3 °F 50.4 °F 93% 29.77 in - East 1.2 mph - 0.02 in   Unknown
3:00 PM 52.2 °F 49.6 °F 91% 29.78 in - SSW 1.2 mph - N/A   Unknown
4:00 PM 52.9 °F 50.7 °F 92% 29.81 in - ENE 1.2 mph - 0.04 in   Unknown
5:00 PM 52 °F 50 °F 91% 29.82 in - NNE 2.3 mph - -  
5:00 PM 52.0 °F 50.2 °F 94% 29.82 in - NNE 2.3 mph - 0.03 in   Unknown
6:00 PM 51.8 °F 50.2 °F 94% 29.84 in - NE 2.3 mph - N/A   Unknown
7:00 PM 51.4 °F 49.8 °F 94% 29.86 in - WNW 1.2 mph - 0.02 in   Unknown
8:00 PM 50.9 °F 49.1 °F 94% 29.89 in - North 1.2 mph - N/A   Unknown
9:00 PM 49.8 °F 48.6 °F 95% 29.92 in - NNE 1.2 mph - 0.02 in   Unknown
10:00 PM 49.6 °F 48.6 °F 96% 29.95 in - NNE 2.3 mph - 0.03 in   Unknown
11:00 PM 49 °F 48 °F 97% 29.98 in - NNE 2.3 mph - -  
11:00 PM 49.5 °F 48.4 °F 96% 29.98 in - NNE 2.3 mph - N/A   Unknown